| time (UTC) | temp F | wind direction | speed MPH | gust MPH | rain 1hr in | rain 24hr in | rain mn in | humidity % | barometer mb |
| 20260503023224 | 89 | 0.0 | 0.0 | 0.00 | 0.00 | 0.00 | 31 | 1005.2 | |
| 20260503022220 | 89 | 0.0 | 0.0 | 0.00 | 0.00 | 0.00 | 32 | 1005.1 | |
| 20260503015207 | 89 | 0.0 | 0.0 | 0.00 | 0.00 | 0.00 | 33 | 1005.0 | |
| 20260503014203 | 90 | 0.0 | 0.0 | 0.00 | 0.00 | 0.00 | 33 | 1005.0 | |
| 20260503013200 | 90 | 0.0 | 0.0 | 0.00 | 0.00 | 0.00 | 33 | 1005.1 | |
| 20260503012155 | 90 | 0.0 | 0.0 | 0.00 | 0.00 | 0.00 | 33 | 1005.1 | |
| 20260503011151 | 90 | 0.0 | 0.0 | 0.00 | 0.00 | 0.00 | 32 | 1005.0 | |
| 20260503010147 | 91 | 0.0 | 0.0 | 0.00 | 0.00 | 0.00 | 32 | 1004.8 | |
| 20260503005142 | 90 | 0.0 | 0.0 | 0.00 | 0.00 | 0.00 | 32 | 1004.5 | |
| 20260503004139 | 90 | 0.0 | 0.0 | 0.00 | 0.00 | 0.00 | 32 | 1004.5 | |
| 20260503002131 | 90 | 0.0 | 0.0 | 0.00 | 0.00 | 0.00 | 32 | 1004.5 | |
| 20260503001126 | 90 | 0.0 | 0.0 | 0.00 | 0.00 | 0.00 | 33 | 1004.7 | |
| 20260503000122 | 91 | 0.0 | 0.0 | 0.00 | 0.00 | 0.00 | 34 | 1004.8 | |
| 20260502235118 | 91 | 0.0 | 0.0 | 0.00 | 0.00 | 0.00 | 34 | 1004.9 | |
| 20260502234114 | 91 | 0.0 | 0.0 | 0.00 | 0.00 | 0.00 | 36 | 1004.9 | |
| 20260502233110 | 91 | 0.0 | 0.0 | 0.00 | 0.00 | 0.00 | 37 | 1004.9 | |
| 20260502232106 | 91 | 0.0 | 0.0 | 0.00 | 0.00 | 0.00 | 39 | 1004.9 | |
| 20260502222041 | 92 | 0.0 | 0.0 | 0.00 | 0.00 | 0.00 | 46 | 1004.7 | |
| 20260502221037 | 92 | 0.0 | 0.0 | 0.00 | 0.00 | 0.00 | 47 | 1004.7 | |
| 20260502220033 | 92 | 0.0 | 0.0 | 0.00 | 0.00 | 0.00 | 47 | 1004.7 | |
| 20260502215028 | 92 | 0.0 | 0.0 | 0.00 | 0.00 | 0.00 | 47 | 1004.8 | |
| 20260502214025 | 92 | 0.0 | 0.0 | 0.00 | 0.00 | 0.00 | 47 | 1004.9 | |
| 20260502213021 | 92 | 0.0 | 0.0 | 0.00 | 0.00 | 0.00 | 48 | 1004.9 | |
| 20260502212017 | 92 | 0.0 | 0.0 | 0.00 | 0.00 | 0.00 | 48 | 1004.8 | |
| 20260502211013 | 92 | 0.0 | 0.0 | 0.00 | 0.00 | 0.00 | 48 | 1004.8 | |
| 20260502210009 | 92 | 0.0 | 0.0 | 0.00 | 0.00 | 0.00 | 49 | 1005.0 | |
| 20260502205004 | 92 | 0.0 | 0.0 | 0.00 | 0.00 | 0.00 | 50 | 1004.6 | |
| 20260502204000 | 92 | 0.0 | 0.0 | 0.00 | 0.00 | 0.00 | 47 | 1004.5 | |
| 20260502202956 | 92 | 0.0 | 0.0 | 0.00 | 0.00 | 0.00 | 48 | 1004.7 | |
| 20260502201952 | 92 | 0.0 | 0.0 | 0.00 | 0.00 | 0.00 | 47 | 1004.1 | |
| 20260502195943 | 92 | 0.0 | 0.0 | 0.00 | 0.00 | 0.00 | 48 | 1003.3 | |
| 20260502194939 | 92 | 0.0 | 0.0 | 0.00 | 0.00 | 0.00 | 47 | 1003.0 | |
| 20260502191927 | 92 | 0.0 | 0.0 | 0.00 | 0.00 | 0.00 | 47 | 1003.1 | |
| 20260502185919 | 92 | 0.0 | 0.0 | 0.00 | 0.00 | 0.00 | 47 | 1003.0 | |
| 20260502184915 | 92 | 0.0 | 0.0 | 0.00 | 0.00 | 0.00 | 47 | 1003.2 | |
| 20260502183910 | 92 | 0.0 | 0.0 | 0.00 | 0.00 | 0.00 | 46 | 1003.0 | |
| 20260502181902 | 92 | 0.0 | 0.0 | 0.00 | 0.00 | 0.00 | 46 | 1003.6 | |
| 20260502180859 | 92 | 0.0 | 0.0 | 0.00 | 0.00 | 0.00 | 46 | 1003.8 | |
| 20260502162817 | 92 | 0.0 | 0.0 | 0.00 | 0.00 | 0.00 | 44 | 1004.8 | |
| 20260502161813 | 92 | 0.0 | 0.0 | 0.00 | 0.00 | 0.00 | 44 | 1005.1 | |
| 20260502160808 | 93 | 0.0 | 0.0 | 0.00 | 0.00 | 0.00 | 44 | 1005.2 | |
| 20260502150744 | 92 | 0.0 | 0.0 | 0.00 | 0.00 | 0.00 | 42 | 1004.7 | |
| 20260502130655 | 91 | 0.0 | 0.0 | 0.00 | 0.00 | 0.00 | 46 | 1003.6 | |
| 20260502123642 | 91 | 0.0 | 0.0 | 0.00 | 0.00 | 0.00 | 46 | 1003.2 | |
| 20260502122638 | 91 | 0.0 | 0.0 | 0.00 | 0.00 | 0.00 | 46 | 1003.2 | |
| 20260502121634 | 91 | 0.0 | 0.0 | 0.00 | 0.00 | 0.00 | 46 | 1003.1 | |
| 20260502114621 | 91 | 0.0 | 0.0 | 0.00 | 0.00 | 0.00 | 46 | 1002.2 | |
| 20260502113618 | 90 | 0.0 | 0.0 | 0.00 | 0.00 | 0.00 | 46 | 1002.2 | |
| 20260502112613 | 90 | 0.0 | 0.0 | 0.00 | 0.00 | 0.00 | 46 | 1002.3 | |
| 20260502111610 | 90 | 0.0 | 0.0 | 0.00 | 0.00 | 0.00 | 46 | 1002.3 | |
| 20260502110605 | 90 | 0.0 | 0.0 | 0.00 | 0.00 | 0.00 | 46 | 1002.2 | |
| 20260502104556 | 90 | 0.0 | 0.0 | 0.00 | 0.00 | 0.00 | 46 | 1001.9 | |
| 20260502103553 | 90 | 0.0 | 0.0 | 0.00 | 0.00 | 0.00 | 46 | 1001.9 | |
| 20260502100540 | 90 | 0.0 | 0.0 | 0.00 | 0.00 | 0.00 | 46 | 1001.7 | |
| 20260502090516 | 89 | 0.0 | 0.0 | 0.00 | 0.00 | 0.00 | 46 | 1001.1 | |
| 20260502071431 | 85 | 0.0 | 0.0 | 0.00 | 0.00 | 0.00 | 36 | 1001.8 | |
| 20260502070426 | 86 | 0.0 | 0.0 | 0.00 | 0.00 | 0.00 | 38 | 1002.0 | |
| 20260502065422 | 85 | 0.0 | 0.0 | 0.00 | 0.00 | 0.00 | 33 | 1002.3 | |
| 20260502064418 | 86 | 0.0 | 0.0 | 0.00 | 0.00 | 0.00 | 42 | 1002.1 | |
| 20260502062409 | 86 | 0.0 | 0.0 | 0.00 | 0.00 | 0.00 | 36 | 1002.2 | |
| 20260502061405 | 86 | 0.0 | 0.0 | 0.00 | 0.00 | 0.00 | 42 | 1002.5 | |
| 20260502060402 | 86 | 0.0 | 0.0 | 0.00 | 0.00 | 0.00 | 34 | 1002.5 | |
| 20260502055358 | 86 | 0.0 | 0.0 | 0.00 | 0.00 | 0.00 | 37 | 1002.6 | |
| 20260502054354 | 87 | 0.0 | 0.0 | 0.00 | 0.00 | 0.00 | 41 | 1002.6 | |
| 20260502050337 | 87 | 0.0 | 0.0 | 0.00 | 0.00 | 0.00 | 30 | 1002.4 | |
| 20260502044328 | 87 | 0.0 | 0.0 | 0.00 | 0.00 | 0.00 | 36 | 1001.9 | |
| 20260502043324 | 87 | 0.0 | 0.0 | 0.00 | 0.00 | 0.00 | 32 | 1002.5 | |
| 20260502042320 | 88 | 0.0 | 0.0 | 0.00 | 0.00 | 0.00 | 33 | 1002.3 | |
| 20260502041316 | 88 | 0.0 | 0.0 | 0.00 | 0.00 | 0.00 | 33 | 1002.6 | |
| 20260502040312 | 88 | 0.0 | 0.0 | 0.00 | 0.00 | 0.00 | 32 | 1002.9 | |
| 20260502035308 | 88 | 0.0 | 0.0 | 0.00 | 0.00 | 0.00 | 30 | 1002.9 | |
| 20260502034303 | 88 | 0.0 | 0.0 | 0.00 | 0.00 | 0.00 | 30 | 1002.9 | |
| 20260502033300 | 89 | 0.0 | 0.0 | 0.00 | 0.00 | 0.00 | 32 | 1003.0 | |
| 20260502032256 | 89 | 0.0 | 0.0 | 0.00 | 0.00 | 0.00 | 27 | 1003.2 | |
| 20260502031251 | 90 | 0.0 | 0.0 | 0.00 | 0.00 | 0.00 | 25 | 1003.4 | |
| 20260502030247 | 91 | 0.0 | 0.0 | 0.00 | 0.00 | 0.00 | 28 | 1003.5 | |
| 20260502025243 | 93 | 0.0 | 0.0 | 0.00 | 0.00 | 0.00 | 41 | 1003.4 | |
| 20260502024239 | 93 | 0.0 | 0.0 | 0.00 | 0.00 | 0.00 | 44 | 1003.2 |